Location: Unspecified
(49.2170°N, 0.0000°E)
Time: 12:12:03
(UTC+00:00)

Vanguard 1 - Pass Details

Date: 30 January 2021
Orbit: 649 x 3834 km, 34.2° (Epoch: 05 March)

Event Time Altitude Azimuth Distance (km) Brightness Sun altitude
Rises 18:56:21 0° 279° (W) 7,839 16.1 -20.1°
Reaches altitude 10° 19:04:32 10° 264° (W) 6,940 15.5 -21.4°
Maximum altitude 19:16:54 18° 232° (SW) 6,071 14.6 -23.4°
Drops below altitude 10° 19:28:05 10° 198° (SSW) 6,131 14.3 -25.2°
Sets 19:34:41 0° 181° (S) 6,616 14.3 -26.3°
